Theta_e
324 326 326 326 325 322 320 319 318 320 324 322 319 317 321 326 318 316 331 337 331 339 351 351 352 355 355 355 355 354 354 355 355 355 355 353 352 351 351 353 354 354 354 355 355 355 355 355 355 354 355 354 355 354 355 354 355 356 358 359 358 358 360 361 360 359 357 356 357 359 360 360 361 360 359 355 351 347 346 347 348 347 345 344 347 351 352
322 324 327 327 325 322 322 323 323 324 325 323 321 321 323 329 325 326 339 345 346 352 352 351 353 353 352 352 352 352 354 355 356 355 355 354 354 352 353 353 353 352 354 355 353 354 354 354 354 355 354 352 351 351 352 352 352 353 354 357 358 356 357 359 359 358 358 358 358 359 358 359 360 362 362 360 358 356 354 353 352 350 348 346 345 348 349
322 323 326 327 326 325 324 325 329 328 324 322 324 328 331 333 331 332 342 346 350 354 353 351 351 351 352 352 351 353 354 354 354 355 354 354 354 352 350 351 350 350 352 353 352 354 354 352 353 353 354 353 352 352 352 351 350 349 350 353 357 355 356 357 356 354 354 356 357 356 355 353 354 358 358 357 357 358 358 358 357 355 352 350 349 348 348
323 324 325 328 327 326 324 325 330 333 329 327 331 335 339 337 333 336 342 342 347 351 351 350 350 352 353 352 352 354 353 353 354 355 355 353 350 347 346 348 349 349 349 350 351 351 351 350 351 351 353 354 353 352 352 351 350 350 350 352 354 355 355 354 352 350 349 350 353 355 353 349 350 353 353 352 353 356 358 358 358 357 355 354 353 351 349
323 321 322 327 327 324 322 324 329 336 337 337 338 339 342 341 340 341 341 342 348 351 349 350 351 351 352 353 353 353 353 354 353 352 351 349 347 346 347 348 348 347 347 348 348 348 348 348 348 348 350 350 350 351 352 351 351 352 353 353 353 354 353 352 352 352 351 349 349 351 351 349 349 351 352 352 353 354 356 357 357 357 355 354 355 354 352
323 326 324 324 326 325 325 327 330 338 340 341 340 340 340 340 344 344 345 347 350 348 347 349 351 350 352 352 351 350 350 350 350 348 346 346 347 347 347 346 346 345 345 345 345 345 344 344 344 344 344 345 344 345 347 349 350 350 350 350 349 349 349 351 353 353 353 352 351 351 351 351 352 353 354 354 354 354 355 356 356 356 355 353 355 357 356
325 330 324 320 325 329 329 329 331 335 337 338 339 340 341 341 343 345 347 348 347 346 346 348 349 349 348 347 347 347 346 345 347 347 344 346 348 347 345 344 344 343 343 344 343 342 340 339 340 340 340 339 338 338 339 342 343 343 343 343 343 343 344 347 350 350 351 351 351 351 351 351 352 355 355 355 355 355 356 355 355 356 355 353 354 355 355
325 326 322 322 328 329 328 330 331 331 335 337 336 337 340 340 342 344 347 347 347 347 346 345 346 346 344 343 343 343 343 344 346 346 345 347 347 345 344 344 343 342 341 341 340 338 337 337 337 336 335 334 333 333 333 334 335 336 338 338 338 339 341 342 344 346 346 346 347 348 349 350 351 352 352 354 355 355 355 353 352 353 354 355 355 352 349
325 322 322 327 329 328 329 332 330 328 332 334 334 336 337 340 341 343 346 347 346 346 345 343 342 341 342 343 341 338 339 341 342 344 345 345 344 344 344 343 342 341 340 338 336 335 335 335 334 333 332 332 332 331 331 330 330 331 333 334 334 335 337 338 340 341 341 341 342 343 344 345 346 346 347 348 350 352 353 353 353 352 352 353 353 350 347
324 319 321 326 329 331 333 331 328 328 327 329 332 332 331 336 340 341 344 346 346 344 344 342 342 343 345 344 339 335 334 336 337 341 342 342 342 342 341 341 340 339 339 337 334 333 333 333 332 332 331 330 330 329 329 328 327 327 328 328 329 331 333 335 336 337 338 339 339 340 339 340 340 341 342 343 345 346 348 349 350 350 349 349 350 348 348
326 323 321 320 325 333 335 330 328 327 324 326 331 330 327 331 336 338 341 345 345 343 343 342 343 347 348 343 337 334 333 332 334 338 340 340 340 339 338 338 338 337 337 335 333 333 332 331 331 331 330 329 328 327 327 326 325 325 325 325 326 328 330 331 332 333 335 337 337 337 337 337 337 337 338 340 342 342 343 345 347 348 348 348 349 347 346
327 327 322 319 323 330 332 329 327 326 325 326 328 326 326 329 333 336 338 342 344 345 345 344 345 347 347 343 337 333 333 333 334 335 338 339 339 338 337 336 335 335 334 334 332 331 331 329 328 328 327 328 328 327 327 326 326 327 327 325 325 326 327 328 329 330 332 333 334 335 335 336 336 336 336 337 340 342 342 343 344 346 346 346 347 346 344
324 323 323 326 327 328 329 329 327 328 329 327 323 324 329 331 332 336 337 338 341 344 344 344 343 344 342 338 334 334 334 334 334 334 336 337 337 337 335 334 334 332 331 330 329 328 328 327 326 327 327 328 328 327 326 324 324 326 327 325 324 325 326 326 327 329 329 329 331 333 333 333 335 335 335 336 338 340 341 341 340 341 342 343 344 344 343
322 320 324 330 329 327 328 329 329 330 331 328 326 327 331 330 332 334 336 336 339 341 341 342 342 340 337 334 333 333 332 332 333 334 335 335 334 334 334 333 332 330 330 329 328 327 327 326 326 327 328 328 327 327 326 324 323 324 326 326 325 326 327 326 324 323 324 325 327 330 331 331 333 334 335 335 336 337 338 337 333 332 336 339 341 342 342
322 318 323 328 327 328 330 330 331 332 331 331 331 330 329 330 331 334 335 336 337 338 338 339 338 337 335 334 334 333 331 331 332 334 334 334 334 333 333 332 330 329 329 329 328 327 326 325 325 326 326 327 327 327 327 326 326 325 325 325 324 325 326 326 325 324 324 323 324 327 329 330 330 331 332 333 334 334 337 336 332 330 334 337 338 339 340
322 317 322 327 327 328 329 329 330 330 328 330 331 329 328 329 331 334 334 334 336 337 337 338 337 336 336 335 334 332 331 331 332 333 333 333 333 334 333 331 329 329 329 328 328 327 326 326 325 325 325 326 326 326 326 326 326 326 326 325 325 324 324 326 326 326 325 323 321 322 326 329 330 330 331 333 334 334 334 336 335 334 335 337 336 336 336
325 324 326 328 326 326 327 327 327 326 325 327 327 327 327 328 330 333 334 334 335 335 336 337 337 337 336 334 333 332 331 331 332 333 332 331 333 333 331 330 329 329 329 328 327 327 328 327 326 325 325 325 325 325 325 324 324 325 325 325 326 325 324 325 324 323 324 324 322 321 323 324 323 323 324 327 330 332 333 334 334 334 334 335 335 334 334
325 326 327 327 325 326 325 325 326 326 325 325 325 326 327 328 329 331 332 333 334 334 334 336 337 337 336 335 332 331 330 331 332 332 332 331 331 331 330 330 329 328 327 326 326 326 326 326 326 326 325 325 325 325 324 324 324 324 324 324 324 324 324 324 323 322 322 322 322 322 322 321 318 316 316 318 320 324 327 329 332 333 333 333 333 333 333
322 325 327 327 326 326 325 325 325 326 325 325 325 325 326 327 327 328 331 333 333 332 334 335 336 337 336 335 334 332 330 332 333 332 332 332 330 330 330 329 328 327 325 324 324 325 325 325 325 325 325 324 324 324 324 323 323 324 324 324 324 324 324 323 323 322 320 320 320 321 321 322 322 320 318 318 319 321 323 325 327 329 329 330 331 332 333
325 328 328 327 326 325 326 326 326 325 325 325 325 324 326 327 327 327 329 330 330 331 332 333 334 334 334 334 335 332 331 332 333 333 332 332 330 330 330 328 327 326 325 324 323 324 324 325 325 325 325 325 324 325 324 323 323 324 324 324 324 324 323 323 321 320 319 319 320 320 319 320 322 322 322 323 323 323 323 324 325 326 327 329 329 329 330
327 327 325 325 325 324 325 325 326 326 325 326 325 324 324 325 326 326 327 328 328 329 331 332 332 332 332 334 335 333 332 333 333 332 333 332 331 331 329 328 327 327 325 324 324 324 324 324 323 324 324 324 323 324 323 322 323 322 321 321 322 322 322 321 320 320 319 319 319 319 319 320 320 319 318 321 324 324 322 321 322 322 326 328 327 327 328
325 326 325 324 326 327 326 326 325 325 325 326 326 325 325 324 325 325 326 327 327 329 329 330 331 331 332 333 334 334 333 333 332 332 331 332 332 331 330 329 328 328 326 325 325 325 324 324 323 322 322 322 322 322 321 322 322 322 321 322 321 321 321 320 318 319 321 319 319 319 319 320 321 319 313 312 318 321 318 314 313 315 319 321 320 322 326
326 327 326 324 324 326 328 327 325 324 324 325 326 326 325 325 324 324 325 326 327 328 328 328 328 330 332 331 331 333 333 332 332 333 332 332 332 331 330 329 329 327 326 326 326 325 325 324 323 322 322 322 322 321 321 321 321 321 322 322 321 321 322 319 316 317 321 320 319 320 320 319 321 321 318 316 316 317 313 309 307 307 310 312 312 314 320
326 326 325 324 323 326 328 326 325 325 324 325 326 326 325 325 324 325 325 325 326 327 327 327 327 328 330 330 330 330 331 331 332 333 332 331 331 330 329 329 329 328 326 325 326 325 325 324 322 321 321 321 320 320 320 321 321 321 321 321 320 320 321 318 315 318 320 320 319 321 321 320 319 320 321 322 321 318 315 312 309 307 307 308 308 309 313
325 325 325 324 323 326 327 325 324 325 324 323 324 325 325 325 324 324 325 326 326 325 327 327 326 326 327 328 328 328 329 329 331 331 331 331 329 328 328 329 328 327 326 325 326 325 324 323 322 321 321 320 320 320 320 320 320 320 320 321 320 319 321 320 319 319 320 319 320 320 320 321 321 321 321 322 324 322 319 317 313 310 309 309 310 309 309
326 325 324 322 323 325 324 322 323 324 323 322 324 325 325 323 322 323 325 324 325 325 326 327 327 326 326 326 327 327 327 328 328 329 330 330 329 327 328 328 327 326 326 326 327 326 324 322 321 321 321 320 320 320 319 319 319 319 319 319 319 317 316 318 319 319 318 319 320 320 319 320 320 320 320 321 321 321 322 321 318 316 316 315 314 314 313
324 324 323 322 323 323 322 322 323 324 323 322 323 325 325 323 322 323 323 323 324 324 324 325 326 325 326 326 326 326 326 327 328 328 328 329 328 327 327 326 326 327 327 326 327 326 324 321 321 321 320 320 319 319 319 319 319 319 318 318 318 314 311 312 317 319 318 318 318 319 319 320 320 319 320 321 319 319 321 321 321 321 321 319 318 317 316
324 323 322 323 324 324 323 322 324 324 323 322 322 322 323 322 322 322 322 323 324 324 324 324 325 325 325 325 325 326 325 325 327 328 327 327 327 326 325 324 325 326 327 326 326 325 323 321 320 320 320 319 319 319 319 319 319 319 318 317 318 317 315 314 316 317 317 318 318 318 318 318 318 318 319 319 319 319 320 320 320 321 322 322 320 319 318
323 323 321 323 325 325 325 323 323 323 322 322 322 322 320 321 321 320 321 322 323 323 323 324 324 323 324 324 324 325 325 324 325 326 326 326 326 326 326 324 323 324 326 326 326 325 323 322 321 320 320 320 319 319 319 319 319 319 319 317 317 318 318 316 316 316 316 317 317 315 314 313 314 316 318 318 318 319 320 320 320 320 320 321 321 320 319
324 323 323 323 324 324 323 322 322 322 322 322 322 321 321 320 320 320 321 322 321 321 322 323 323 323 323 323 324 325 325 325 325 325 326 326 326 325 326 326 326 326 326 327 327 325 324 322 322 321 321 321 320 319 320 319 319 319 319 317 317 317 316 314 313 315 316 317 316 314 314 315 316 317 317 317 317 318 318 319 320 318 318 319 319 319 319
324 323 323 323 323 321 322 322 322 322 322 322 322 321 321 321 319 320 321 322 321 320 321 321 321 322 322 322 323 324 324 324 325 325 326 326 326 326 326 326 327 327 327 327 327 326 324 323 322 322 322 322 321 320 319 319 319 319 318 317 316 315 311 308 308 311 313 315 316 315 316 316 317 316 316 316 317 317 317 318 318 318 317 318 319 318 319
324 324 324 323 323 322 322 323 323 322 322 321 321 321 321 321 320 320 320 320 320 320 321 320 320 320 321 321 321 321 321 322 323 324 324 325 326 327 326 326 326 326 326 326 326 326 325 325 323 322 323 323 321 320 319 319 319 319 318 317 317 315 311 308 309 311 313 313 314 315 316 315 316 316 316 316 315 316 316 316 317 318 317 317 318 318 318
325 324 323 324 323 322 322 322 322 322 322 322 322 321 321 321 320 320 319 319 320 320 320 321 321 321 320 321 320 320 320 320 320 321 322 322 323 325 326 326 325 325 324 324 324 325 325 325 324 323 323 323 321 320 319 319 319 318 318 317 317 316 314 311 310 311 312 313 313 314 315 315 315 315 314 315 314 315 315 315 315 316 316 316 317 316 314
324 323 323 323 323 323 323 322 322 322 322 321 321 321 321 320 320 320 319 320 320 319 319 320 319 319 319 319 319 319 319 319 319 319 319 320 320 322 324 324 325 325 324 323 323 324 325 325 325 324 324 324 322 320 319 319 318 317 317 317 316 316 315 313 312 311 312 313 314 314 314 313 312 312 312 313 314 314 314 314 314 314 314 315 315 314 312
324 323 323 323 323 322 322 322 322 321 321 320 320 320 320 320 320 319 319 320 319 318 318 318 317 317 318 317 317 317 317 317 318 318 318 318 318 319 320 321 322 324 324 324 324 323 323 323 324 325 324 324 322 320 319 318 318 317 316 317 316 315 315 315 314 313 313 313 313 314 313 312 312 312 312 313 313 313 313 313 313 312 312 313 313 313 313
324 324 324 323 323 322 322 322 321 321 321 320 320 320 320 320 320 319 318 318 317 317 317 317 316 316 316 316 316 316 316 316 316 316 316 316 317 317 317 318 319 320 321 323 323 323 322 322 322 324 324 323 321 320 319 318 317 316 316 316 315 314 314 314 314 313 313 312 312 312 311 312 311 311 311 311 311 312 312 311 311 311 311 311 311 312 312
324 324 324 324 323 323 322 322 322 321 320 320 320 319 319 319 318 317 317 317 316 316 316 315 315 315 315 315 315 315 314 314 314 314 315 315 315 315 316 317 317 318 318 319 320 321 321 321 322 322 322 322 321 320 319 318 317 316 316 315 313 313 313 313 313 313 312 312 311 311 310 310 310 310 310 310 310 310 310 310 310 310 310 310 310 310 310
324 324 324 323 322 322 322 321 320 320 319 319 319 318 317 317 317 316 316 316 315 315 315 314 314 314 314 314 313 313 313 313 313 313 313 313 313 314 314 314 315 316 316 316 317 318 319 321 321 321 321 321 320 319 318 317 315 315 315 314 313 313 312 313 312 312 311 311 311 310 310 310 310 311 311 310 310 309 309 308 308 308 308 308 308 307 307
323 323 322 322 321 321 320 319 318 318 318 317 317 316 316 316 315 315 315 315 314 314 313 313 313 312 312 312 312 311 311 311 311 311 312 312 312 312 312 313 314 314 314 315 315 316 317 319 320 320 320 320 319 318 316 314 313 314 314 313 313 312 312 311 311 310 310 310 310 310 310 310 310 310 310 309 308 308 308 307 306 306 306 306 306 306 306
323 321 321 320 320 319 319 318 317 316 316 315 315 314 314 314 314 313 313 313 312 312 312 311 311 311 311 311 311 311 311 310 310 310 311 311 311 312 312 312 313 313 314 314 314 315 316 317 318 319 319 318 317 316 314 312 312 312 313 313 312 312 310 309 309 309 309 309 309 309 308 308 308 308 308 307 307 307 306 306 305 305 305 305 305 305 305
321 319 319 318 318 317 316 316 315 315 314 314 314 313 313 313 312 312 312 311 311 311 311 310 311 311 311 311 311 311 311 311 310 310 311 311 311 312 313 313 313 313 313 314 314 314 315 315 316 316 316 316 315 313 312 311 311 311 311 311 310 309 308 307 307 307 307 308 308 308 308 308 307 307 306 306 305 305 305 305 304 304 303 304 303 303 303
319 318 318 317 316 315 315 314 314 314 314 313 313 312 311 311 311 310 310 310 310 310 310 310 310 311 311 311 311 311 310 310 310 310 311 310 311 311 312 312 312 313 313 314 314 314 315 315 315 314 314 314 313 312 311 310 310 310 309 308 307 306 306 306 306 306 306 306 307 307 307 307 306 306 305 305 304 304 303 303 303 303 303 302 302 302 302
317 317 316 315 315 314 314 314 313 313 313 312 311 310 310 310 310 310 310 309 309 309 309 309 309 309 310 310 310 310 311 310 310 310 310 310 310 311 311 312 313 314 314 314 315 315 315 315 313 313 313 312 311 310 309 309 308 307 306 305 305 305 305 305 305 305 305 305 304 304 304 304 304 303 303 303 303 303 302 302 302 301 301 301 301 301 300
316 315 315 314 314 314 313 313 313 312 311 310 310 310 310 310 309 309 309 308 308 308 308 308 309 309 309 309 309 310 310 310 310 310 310 310 310 310 312 313 313 313 313 313 314 314 313 312 311 310 310 309 309 308 308 308 307 305 304 304 304 304 304 304 304 304 304 304 303 303 302 302 302 302 301 302 302 302 301 301 301 301 300 300 300 300 299
315 314 314 314 313 313 312 311 311 311 310 309 309 310 309 309 308 308 308 308 308 308 308 308 308 308 307 308 309 309 310 310 310 310 310 310 310 311 312 313 313 313 312 312 312 311 310 309 308 308 307 307 307 305 305 305 304 303 302 303 303 303 303 303 302 303 302 303 302 302 302 301 301 301 300 301 300 300 300 300 300 300 299 299 299 299 298
314 313 313 312 312 311 311 310 309 309 309 309 310 309 308 308 307 307 307 307 307 307 307 307 307 307 307 307 308 309 310 311 311 311 310 310 310 310 311 312 312 311 311 310 309 308 307 306 306 305 305 305 304 303 302 302 302 302 301 302 302 302 302 302 302 302 302 302 301 301 301 300 300 300 300 300 300 299 299 299 299 298 298 298 298 298 297
313 312 312 311 310 310 310 309 309 309 310 310 309 309 308 307 307 307 307 306 306 306 306 306 306 307 307 307 308 309 310 310 311 310 310 310 309 309 309 309 309 309 308 307 306 305 305 304 304 303 303 302 302 301 301 301 301 301 301 301 301 301 301 301 301 302 301 301 300 300 300 299 299 299 299 299 298 298 298 298 298 298 298 297 297 297 297
312 311 311 310 309 309 310 310 310 310 310 309 309 308 307 307 307 306 306 306 306 306 306 306 306 306 307 307 307 308 309 309 309 308 308 307 307 307 306 305 305 305 305 304 304 303 304 303 303 302 301 300 300 300 300 300 300 300 300 300 301 301 301 301 301 300 300 300 299 299 298 298 298 298 298 298 297 297 297 297 297 297 297 297 297 297 296
311 310 309 309 308 309 309 310 310 310 309 308 308 307 306 307 306 306 306 306 306 305 305 305 306 306 306 306 306 307 307 308 307 306 305 304 303 303 303 302 302 302 302 302 301 301 302 302 301 300 299 299 299 299 299 299 299 300 300 300 300 300 300 300 300 299 299 299 298 298 298 298 298 297 297 297 297 297 297 297 297 297 297 297 296 296 296
310 309 309 308 309 309 309 309 310 309 308 308 308 307 307 306 306 306 305 306 306 305 305 305 305 305 305 306 305 305 305 304 304 303 302 302 301 301 300 300 300 300 299 299 299 299 300 300 300 298 297 297 298 298 299 299 299 299 299 299 299 299 299 299 298 298 298 298 298 298 297 297 297 297 297 296 296 296 296 296 296 296 296 296 296 296 296
309 309 308 308 308 309 309 309 309 308 308 307 307 307 306 306 306 306 305 305 305 305 305 305 305 304 304 305 305 304 303 302 302 301 301 301 301 300 300 299 299 300 299 299 298 299 299 300 299 298 297 297 298 298 299 299 299 299 299 299 299 299 298 298 298 298 298 297 297 297 297 297 297 297 297 296 296 296 296 296 296 296 296 296 296 296 296
309 309 308 308 308 308 309 309 308 308 308 307 307 307 307 307 307 307 306 306 305 305 305 305 304 304 304 304 304 304 303 302 302 301 301 300 300 300 300 300 300 300 300 299 299 300 300 300 299 299 299 298 298 298 298 299 299 299 299 299 298 298 298 298 298 298 298 297 297 297 297 297 297 297 297 297 296 296 296 296 296 296 296 296 296 296 296
Wind_Speed
12 12 9 10 13 14 13 14 14 12 12 13 13 14 10 4 5 4 7 7 1 5 8 6 5 7 9 9 8 6 3 5 10 11 12 12 11 12 12 10 10 8 8 8 8 8 8 8 7 7 7 9 9 8 8 8 9 10 9 10 11 12 11 12 12 13 13 12 12 11 10 10 11 11 13 14 15 15 15 15 15 15 15 15 15 15 15
11 12 9 11 14 11 7 7 8 10 13 14 13 14 11 5 5 5 4 8 7 6 4 6 7 8 10 9 8 6 4 5 9 11 12 11 11 12 12 11 10 8 8 9 9 9 9 8 8 8 7 9 10 11 12 12 13 14 12 12 12 13 14 14 13 12 12 12 11 12 11 10 10 10 10 10 11 12 14 15 15 14 14 15 16 16 15
8 10 11 11 10 7 5 4 6 9 11 12 9 7 5 3 5 5 5 7 5 5 5 6 7 8 8 8 8 7 6 6 8 10 12 12 11 10 8 7 8 7 6 8 8 8 8 7 8 8 8 7 9 10 11 14 16 16 15 14 14 15 15 16 16 15 14 12 11 11 12 13 13 12 11 11 10 10 12 14 14 14 14 14 15 16 15
5 10 12 10 10 11 8 2 2 2 4 5 2 0 3 1 3 5 6 5 3 5 6 6 6 7 8 8 8 8 6 6 8 10 12 12 11 7 4 4 6 6 6 7 7 8 8 7 6 5 6 6 8 9 9 12 14 14 15 17 17 17 16 17 18 18 19 18 15 12 14 16 16 15 14 15 13 12 12 13 13 14 14 15 15 15 14
5 7 8 8 8 10 8 3 6 6 4 4 3 5 2 3 2 2 3 4 4 5 6 5 7 7 8 8 8 8 7 7 8 10 11 10 9 8 7 7 8 7 8 9 9 9 8 7 7 5 4 3 1 3 5 8 11 11 11 13 15 15 15 16 15 15 17 19 19 17 16 17 17 17 17 17 17 16 15 14 13 14 16 16 15 15 15
5 7 6 8 8 5 4 4 6 8 4 2 4 8 7 8 8 4 3 5 6 6 6 6 7 7 7 8 8 8 8 8 7 8 6 5 9 13 11 10 10 10 10 10 10 10 9 9 8 8 9 9 8 7 4 0 4 4 4 5 5 5 8 9 11 13 14 16 19 20 18 18 18 17 16 17 17 17 15 14 15 15 16 17 15 13 13
3 7 10 8 5 2 1 4 7 6 5 4 9 12 12 12 11 8 7 7 6 7 7 7 8 10 11 11 10 11 11 7 5 6 3 3 7 14 13 11 12 12 12 11 11 11 11 10 9 9 9 10 11 11 9 7 7 8 6 5 4 4 4 6 7 9 10 9 11 14 14 15 15 15 15 16 17 16 16 17 16 15 16 17 16 12 8
5 5 7 5 2 1 2 5 8 6 2 3 6 9 12 13 11 8 7 7 8 9 10 9 8 11 12 11 11 12 11 7 5 6 4 1 4 11 12 13 14 13 12 12 12 12 12 12 11 11 10 10 11 13 13 13 14 13 10 8 8 8 6 6 5 5 5 6 5 4 6 6 7 10 13 14 15 14 17 19 18 16 17 16 15 11 6
6 5 3 3 2 2 0 4 6 7 6 4 3 6 10 11 9 8 7 7 8 9 9 8 8 10 10 9 9 11 10 8 8 10 8 6 9 13 15 15 16 14 14 14 14 14 14 13 13 12 11 12 13 15 15 16 17 16 13 12 12 12 11 10 9 7 6 6 6 4 2 1 1 3 5 6 8 9 13 17 17 16 16 13 11 10 8
7 5 4 5 4 2 0 3 6 7 7 8 7 3 7 9 9 8 7 6 7 7 7 8 9 8 8 7 6 9 11 11 10 11 10 9 12 15 15 15 15 15 15 15 15 16 15 15 14 13 13 14 15 16 16 17 18 18 17 16 15 14 14 13 11 11 11 9 8 8 6 6 6 4 5 4 2 4 6 10 13 13 12 8 5 8 10
5 5 5 5 5 3 2 4 7 8 7 9 8 2 5 9 10 8 7 6 5 4 6 7 6 6 7 6 5 7 10 11 10 10 10 11 11 11 11 13 15 16 16 17 17 17 16 16 14 13 13 14 14 15 15 16 17 17 17 18 16 14 13 12 11 11 11 10 9 9 8 9 9 8 8 8 4 1 1 5 8 10 11 9 8 11 12
6 6 5 3 2 4 4 4 5 6 7 7 6 2 4 8 9 7 7 7 6 4 5 6 4 3 5 5 5 6 8 9 10 9 7 9 10 10 11 12 14 16 17 17 17 16 15 13 12 10 11 12 12 11 11 11 12 12 12 14 15 14 13 12 11 11 10 9 10 9 9 9 10 9 8 8 8 6 5 6 9 11 12 12 10 11 12
7 7 2 3 3 4 4 3 4 4 4 5 4 1 4 7 7 7 7 7 7 5 5 6 3 2 5 8 9 8 7 9 10 9 8 11 15 14 12 11 12 14 15 16 16 16 14 12 10 9 9 10 10 10 9 9 10 9 9 11 12 13 12 10 10 10 10 10 10 10 10 10 10 9 8 7 8 8 8 8 9 10 12 11 9 10 11
5 4 2 3 3 3 4 2 2 5 4 1 2 4 4 5 5 6 7 6 7 6 6 5 5 6 8 11 12 10 9 9 9 9 10 13 17 15 12 11 11 13 14 14 15 15 13 11 10 9 9 10 10 9 9 9 9 8 8 9 9 10 10 9 8 9 10 12 11 9 9 10 10 9 7 7 7 6 7 7 7 7 8 7 5 7 10
3 4 3 2 2 4 6 2 1 5 4 3 4 2 3 5 5 4 5 6 7 6 5 5 6 9 11 12 11 10 9 9 9 9 10 11 14 14 12 11 12 12 13 13 13 13 13 11 11 10 9 10 9 9 9 9 8 7 7 7 7 7 8 7 7 7 8 9 8 7 7 9 9 8 7 7 6 5 6 6 6 6 5 3 3 5 7
3 2 4 3 3 6 8 5 5 6 6 5 2 2 5 5 5 4 4 5 6 5 5 6 6 8 9 10 9 9 8 9 9 10 10 10 12 13 12 11 12 12 13 13 12 11 11 10 10 11 10 10 9 9 8 7 6 7 7 6 6 6 6 5 5 5 5 5 5 5 6 7 8 8 8 7 6 5 5 5 5 4 3 1 2 3 4
4 4 6 5 5 7 9 8 8 7 7 6 5 6 7 5 5 5 4 4 4 4 4 5 4 5 6 7 8 8 8 9 9 10 11 12 12 12 12 11 11 11 11 12 11 11 10 9 9 10 10 10 10 8 7 6 5 6 6 5 6 6 5 5 4 4 4 4 5 4 3 4 6 6 6 6 6 6 4 3 3 2 0 1 1 2 2
7 7 7 6 7 8 8 8 8 7 7 6 6 7 7 6 7 6 5 5 5 4 4 4 3 3 3 5 7 7 6 7 8 8 10 10 11 12 12 10 10 11 11 11 10 11 10 9 9 9 10 10 10 8 6 6 5 5 5 5 5 5 4 4 4 3 3 3 4 4 3 3 5 5 4 5 4 5 6 4 1 0 1 2 2 2 2
3 4 6 7 6 7 7 7 7 6 7 7 6 6 6 6 7 7 6 6 5 3 3 2 2 4 4 4 6 7 5 6 7 8 8 8 9 12 12 10 10 10 10 10 10 11 10 10 9 9 9 9 9 7 6 6 5 5 4 4 4 3 3 3 3 3 3 3 2 3 3 3 5 6 5 6 6 3 3 4 4 4 3 3 2 2 2
2 4 8 7 6 5 4 4 5 6 6 6 6 5 5 6 6 6 7 6 5 4 4 3 2 3 4 4 5 6 6 6 7 7 8 7 8 11 11 10 9 9 9 10 10 11 10 9 9 9 8 8 8 7 6 5 4 3 3 2 2 2 2 2 2 2 3 2 2 2 3 3 4 4 3 4 4 4 3 2 3 6 4 1 0 1 1
4 5 7 6 5 5 4 3 5 6 5 5 5 4 5 6 6 6 6 7 6 6 5 4 3 1 2 4 4 5 6 7 7 7 8 8 9 10 11 11 10 9 9 10 10 10 10 9 9 9 8 7 6 6 5 4 3 3 2 1 1 1 1 2 2 2 2 2 3 3 3 3 3 3 4 3 4 4 2 5 4 3 4 3 2 2 3
3 4 6 5 2 3 5 5 5 5 4 4 4 4 5 6 6 5 5 6 6 6 6 5 3 2 2 2 2 4 5 6 6 7 8 9 9 10 11 11 11 11 10 10 10 10 9 8 8 8 7 6 6 5 5 5 4 3 2 1 1 1 2 3 4 3 3 4 4 4 3 2 3 3 2 2 2 3 1 3 6 6 4 2 1 1 3
4 5 5 3 1 2 6 6 4 4 3 3 4 4 4 4 5 5 5 5 5 5 5 5 4 3 2 1 1 2 4 5 5 7 8 9 9 10 10 10 11 12 11 10 10 10 9 8 8 8 7 6 6 5 5 4 4 3 2 1 1 2 2 4 4 4 3 3 3 3 3 3 2 1 2 1 1 1 3 4 4 6 7 6 6 5 2
5 5 4 3 1 3 7 5 4 4 3 2 3 3 3 3 4 5 5 5 5 5 4 4 5 4 3 2 2 3 3 3 4 5 7 8 9 10 11 11 12 13 12 11 11 10 9 9 8 8 8 7 6 6 6 5 4 3 2 1 1 2 3 3 2 2 2 2 2 2 1 1 1 2 2 4 4 2 1 3 3 3 5 5 5 6 4
3 5 5 3 2 5 6 5 4 4 2 1 2 3 3 4 4 4 4 4 4 4 4 4 4 4 4 2 2 3 3 3 2 2 5 7 8 10 11 12 13 13 13 13 12 11 10 10 9 8 8 8 7 7 7 6 5 4 3 2 2 3 2 2 2 2 2 2 2 2 2 2 1 2 3 3 4 4 3 1 1 2 2 3 4 5 5
4 5 5 4 4 5 5 3 4 5 3 2 2 3 4 4 2 2 2 2 3 3 3 3 4 4 4 3 2 2 3 3 2 1 3 6 8 10 11 12 12 12 12 12 12 12 11 10 10 9 9 8 8 8 7 6 6 5 4 3 3 3 2 2 1 1 2 2 2 2 2 3 3 3 3 3 2 1 3 4 4 3 2 2 2 4 6
3 4 5 4 5 6 5 2 2 5 5 2 2 3 4 3 2 1 1 1 1 2 2 3 3 3 3 3 2 2 1 2 2 3 4 5 7 8 8 8 10 11 11 10 11 11 12 11 10 9 9 9 9 9 8 8 7 6 5 4 3 3 2 2 0 1 1 2 2 3 2 3 4 4 4 3 4 4 3 2 3 4 5 5 3 3 7
4 4 5 3 2 3 6 5 4 5 4 3 2 2 2 2 2 2 2 2 1 1 1 2 3 2 2 1 1 1 1 2 3 4 4 5 7 6 5 6 8 9 10 9 9 11 12 12 11 11 10 10 10 9 9 9 7 6 5 4 4 4 3 2 1 0 1 1 2 2 3 3 4 5 5 4 4 4 4 3 3 3 2 5 4 2 6
5 5 4 2 2 4 6 7 5 4 4 4 3 2 3 2 2 2 2 1 0 0 0 1 2 3 3 2 2 2 3 3 3 4 5 5 6 7 7 9 11 10 10 10 10 11 13 12 12 12 12 12 12 10 9 9 7 6 5 4 3 3 3 2 1 0 1 1 1 2 3 4 4 4 4 5 5 5 5 4 3 4 3 1 2 3 4
5 5 4 4 4 4 4 5 4 5 5 4 4 3 3 2 2 2 1 1 1 2 1 2 2 2 3 3 3 3 4 4 4 5 5 5 6 7 7 8 9 9 10 11 11 12 13 13 13 13 13 13 13 12 10 9 7 6 5 4 2 3 3 2 1 1 1 1 1 2 3 3 3 3 4 4 4 5 5 5 4 4 5 4 3 3 4
6 6 6 5 5 5 5 4 4 4 4 3 3 4 3 2 3 2 0 0 1 1 1 1 2 2 2 3 3 3 4 4 4 5 5 5 6 6 7 8 9 10 10 11 12 13 14 14 14 14 14 14 14 13 12 10 8 7 6 5 4 5 4 3 2 2 2 2 2 2 3 3 3 3 4 4 4 4 5 5 5 5 5 5 4 4 3
7 7 7 6 6 6 5 5 4 4 4 4 4 3 3 3 3 2 2 2 2 1 1 2 3 2 2 3 3 3 4 4 5 5 6 7 7 7 8 9 10 11 11 11 11 12 13 14 15 14 15 16 16 15 14 12 10 9 8 7 6 6 4 2 3 3 2 2 3 3 3 3 3 3 3 3 4 5 5 5 5 5 5 5 5 3 1
7 7 7 7 6 6 5 5 5 4 4 4 4 3 2 2 3 3 3 3 3 3 3 4 4 4 4 5 5 6 6 6 7 7 8 8 8 8 9 10 11 12 13 13 13 13 14 15 15 15 16 17 18 17 16 14 12 10 9 8 7 7 6 5 4 4 4 4 4 3 3 2 3 3 4 4 4 5 5 5 5 5 5 6 4 1 1
7 5 4 5 6 6 5 5 5 4 4 4 4 3 3 4 5 4 4 5 5 5 5 6 6 6 7 7 8 8 9 9 9 9 10 10 9 9 9 9 11 11 12 13 14 15 15 15 15 16 17 19 19 18 16 16 14 11 10 10 8 7 7 6 5 4 5 5 4 4 3 3 4 4 4 4 4 4 4 5 5 5 6 6 4 1 1
6 3 2 3 5 4 3 3 3 3 4 4 4 4 4 5 5 5 5 5 6 6 7 7 8 9 10 10 10 11 12 12 12 12 12 12 12 11 11 11 12 12 12 13 14 15 15 15 15 16 17 18 18 18 17 17 16 13 12 11 10 8 7 7 6 5 5 4 4 4 4 4 4 4 4 4 4 4 4 4 5 5 6 6 6 4 2
5 3 3 3 3 3 3 2 3 3 3 4 4 4 5 5 5 6 6 7 8 8 9 9 10 11 11 12 12 13 14 14 14 14 15 14 14 14 14 14 14 14 14 14 14 14 15 15 16 18 18 18 17 17 18 17 16 14 13 12 10 7 7 7 6 6 5 4 4 4 4 4 4 4 4 4 5 4 4 4 5 5 5 6 7 6 4
5 4 4 4 3 3 3 2 1 0 1 2 2 3 4 6 6 7 8 9 9 10 10 10 11 12 13 13 14 15 15 16 16 16 16 16 16 16 16 16 16 16 17 17 15 14 14 15 17 20 20 19 17 17 17 17 16 14 13 12 11 9 9 9 8 7 6 5 5 4 4 5 5 6 5 5 4 4 4 4 5 5 5 6 7 7 6
6 6 6 5 5 5 5 4 3 2 1 1 2 3 4 6 7 8 9 9 10 10 11 11 12 13 13 14 15 16 17 17 17 18 18 18 18 19 19 18 17 17 17 16 15 15 15 16 18 19 19 18 16 16 17 18 16 13 12 12 11 11 11 10 8 7 6 6 6 5 5 5 5 5 5 4 4 4 5 4 5 5 6 6 7 7 7
8 7 7 6 5 5 4 3 2 2 2 3 4 4 5 6 7 7 8 9 9 10 10 11 12 13 14 15 16 17 18 18 18 18 19 19 19 20 21 21 20 19 18 17 16 15 14 15 17 18 18 18 16 15 17 19 17 14 14 13 12 12 11 9 8 7 6 5 5 5 5 5 5 4 4 4 4 4 5 5 5 6 6 7 7 7 7
7 6 5 5 4 3 2 2 2 2 2 3 4 4 4 5 6 7 8 9 9 10 11 13 14 14 15 16 17 18 18 19 19 19 18 18 19 19 20 20 20 19 19 18 17 15 14 15 17 17 17 17 15 14 18 21 19 14 14 14 13 12 10 8 6 6 6 5 5 5 4 4 5 5 5 5 5 5 5 5 5 6 7 7 8 8 8
5 5 4 3 3 2 2 2 2 2 2 2 3 3 4 5 7 8 9 10 11 12 13 14 14 15 15 16 17 18 19 19 19 19 18 18 17 17 17 17 17 16 15 15 14 14 15 17 17 15 15 15 15 15 17 19 17 14 13 13 11 10 8 6 5 5 5 6 7 7 7 8 8 7 6 6 6 5 5 5 6 7 7 8 8 8 8
5 5 4 4 3 3 3 2 2 2 2 2 3 4 5 6 7 8 10 11 12 12 13 14 14 15 16 16 17 19 19 20 19 19 19 19 18 17 17 16 14 12 10 8 8 9 11 14 14 12 11 12 13 14 16 16 14 13 13 11 9 7 6 6 5 5 5 4 5 5 6 7 9 8 6 6 6 5 6 6 7 8 8 8 8 8 8
6 5 5 4 4 3 2 1 1 1 1 2 3 4 5 6 7 8 8 9 11 12 12 13 14 15 15 16 18 19 19 20 19 19 19 19 18 17 16 15 12 8 6 5 6 8 10 10 11 12 13 13 13 15 16 15 13 11 10 9 7 7 6 6 5 5 5 4 2 2 4 5 6 6 6 6 7 6 7 8 8 8 8 8 8 8 8
6 5 5 4 4 3 2 1 1 1 2 3 3 4 4 5 6 7 7 8 9 10 11 12 13 14 14 15 16 17 18 18 18 18 18 18 17 15 12 10 7 6 6 6 6 8 8 9 10 14 15 15 15 15 14 13 11 10 8 7 7 6 6 6 5 5 5 4 4 4 5 5 6 6 7 8 8 8 8 8 8 8 8 8 7 7 7
7 6 5 4 3 2 2 2 1 2 2 2 1 2 3 4 5 6 6 7 8 9 10 11 12 12 13 14 15 17 18 18 17 15 13 12 11 9 8 7 6 6 8 10 8 8 8 10 12 14 16 17 18 16 13 10 10 9 7 7 7 7 7 6 6 5 4 5 5 5 6 6 7 8 8 8 8 8 8 8 8 8 8 8 7 7 7
7 6 5 4 3 3 2 2 1 0 0 1 1 2 3 4 4 4 5 6 7 8 8 9 10 11 12 13 14 16 15 13 11 9 8 6 4 2 2 5 6 8 10 11 11 12 13 13 13 15 17 19 18 14 9 8 9 8 7 7 7 7 7 7 6 6 6 6 7 7 8 7 7 8 8 8 8 8 8 8 8 8 7 7 7 7 7
7 6 5 4 3 2 2 2 2 2 2 2 1 2 3 3 3 4 4 5 6 6 7 9 9 10 11 12 12 11 11 9 6 4 4 4 4 5 5 5 8 12 14 14 14 15 17 17 16 15 14 13 12 9 7 6 7 7 6 7 7 6 6 7 6 6 7 7 7 7 8 7 7 8 8 8 8 8 8 8 8 7 7 7 6 6 6
6 5 4 4 2 2 2 3 3 3 2 2 2 3 3 2 3 4 4 4 5 6 8 9 9 10 11 11 10 8 8 8 7 8 10 10 11 13 14 14 14 16 18 17 16 17 19 19 17 15 11 8 6 6 6 6 6 5 5 5 5 5 6 6 6 6 7 7 7 7 7 7 7 8 7 8 8 8 8 8 8 7 7 7 6 6 6
4 4 4 3 3 2 3 4 3 3 3 4 4 3 3 3 3 3 3 4 5 6 7 8 9 9 11 11 11 11 12 11 10 12 14 15 16 17 17 18 18 18 17 16 15 14 15 16 16 15 12 8 5 5 5 6 5 5 5 5 4 5 6 6 6 6 6 7 8 7 7 7 7 7 7 7 8 8 7 7 7 7 6 6 6 6 6
5 4 4 3 3 3 3 4 3 4 4 4 5 4 4 3 2 2 2 3 4 5 6 7 8 9 10 11 12 13 14 14 15 15 15 15 15 15 14 14 14 13 12 13 13 12 11 11 12 12 11 9 6 5 5 5 5 5 5 5 5 5 5 4 4 4 5 7 7 7 7 7 7 7 7 7 7 7 7 7 7 6 6 7 7 6 6
5 5 4 3 3 4 4 3 3 4 5 5 5 5 4 3 2 2 1 1 2 3 4 5 6 7 8 9 11 12 13 14 15 15 13 12 13 13 12 12 11 10 10 11 12 10 9 9 9 8 8 7 5 4 4 4 5 5 6 6 6 6 6 5 5 5 6 6 6 7 7 7 7 8 8 8 7 7 7 7 7 7 7 7 7 7 6
6 5 5 5 5 5 5 4 5 6 6 6 6 5 4 3 2 2 1 1 1 1 2 3 4 5 6 7 8 10 10 10 11 11 11 11 11 11 10 9 9 9 9 10 10 10 10 10 8 7 7 6 5 4 3 4 5 5 5 6 6 6 6 6 6 6 6 6 6 7 7 7 7 8 8 8 8 8 8 7 7 7 7 6 6 6 6
Wind_Direction
232 233 239 238 237 232 219 215 215 212 213 216 224 236 245 264 254 273 6 7 336 143 146 156 140 127 121 111 106 102 88 113 129 139 141 143 150 150 147 146 144 147 149 148 154 157 156 161 166 171 183 189 189 190 188 186 191 202 204 204 209 209 208 212 214 212 210 208 208 208 209 214 218 222 227 233 235 233 231 230 228 228 227 223 219 219 220
232 221 227 231 232 234 234 239 241 228 220 217 220 233 243 251 263 276 44 55 41 44 98 120 112 113 115 111 113 122 131 122 126 137 137 134 138 135 128 128 131 139 145 148 156 158 155 160 172 182 192 198 202 203 203 204 205 207 211 215 219 220 217 213 209 209 211 209 209 211 213 215 218 221 223 227 234 236 231 230 230 230 230 229 226 224 223
243 210 212 219 216 208 207 240 252 240 230 224 220 242 262 245 239 226 121 96 74 57 69 89 101 110 117 127 131 127 137 148 143 141 135 125 116 108 102 109 125 137 144 151 155 149 141 146 168 189 195 194 201 204 208 216 221 222 222 220 220 223 222 218 215 218 223 222 220 222 226 227 225 225 228 229 233 238 235 232 231 231 230 229 229 229 226
251 213 205 199 185 172 155 117 335 257 246 238 179 45 320 280 213 183 131 116 119 97 85 93 115 122 124 132 131 125 133 147 146 141 129 114 107 113 130 127 128 135 136 135 130 119 118 124 139 178 196 198 206 210 214 222 226 227 226 221 221 223 223 224 226 228 230 233 235 235 235 235 233 232 238 241 240 240 239 236 232 232 232 228 227 230 230
248 222 197 182 187 172 140 53 5 33 3 293 144 118 63 56 89 196 156 127 122 107 106 127 135 131 133 132 129 131 133 127 120 117 112 111 124 146 154 132 116 113 113 114 113 109 105 96 87 80 77 84 147 204 217 225 225 226 225 221 223 226 226 229 232 229 229 232 234 233 233 235 234 232 234 236 235 234 234 235 233 232 233 230 226 227 229
276 280 240 192 193 181 123 13 11 60 55 318 82 75 46 54 75 99 123 125 130 124 123 136 132 116 104 103 101 96 95 93 89 93 103 142 148 137 127 116 105 98 99 103 105 103 94 85 79 70 64 63 57 53 53 176 212 197 178 184 200 206 205 212 217 216 222 228 228 226 227 227 228 228 228 228 228 228 227 229 229 227 232 236 231 227 229
255 282 257 211 180 181 133 27 23 63 102 83 70 61 44 45 62 85 112 121 119 113 106 107 111 99 83 81 81 72 72 76 88 107 133 219 148 127 119 113 107 104 107 106 99 94 89 87 86 76 70 68 59 55 60 66 72 75 89 111 100 97 143 170 186 198 206 211 218 223 226 227 229 231 231 230 229 225 221 225 225 223 232 240 232 229 243
218 232 243 214 152 174 137 64 26 9 40 68 71 69 53 41 41 54 77 88 90 99 105 101 102 104 96 89 83 76 80 95 110 122 141 214 125 116 112 111 112 111 111 107 98 93 91 89 87 82 77 74 70 71 73 71 70 69 71 78 79 83 102 115 128 161 174 165 162 189 212 225 238 243 243 240 233 224 221 225 225 222 229 234 227 226 259
244 207 172 144 158 237 55 57 22 3 7 356 1 75 66 46 38 43 56 80 92 98 110 115 114 113 106 95 78 64 73 98 108 111 122 124 109 103 101 106 111 109 106 104 101 99 95 92 91 92 94 93 89 83 75 69 72 73 68 65 67 69 71 77 86 91 96 106 101 98 118 101 350 280 275 262 239 226 220 218 216 218 225 229 222 218 228
253 219 168 150 163 191 60 36 10 2 1 341 329 33 74 47 33 37 46 73 93 100 124 140 137 121 101 93 77 50 50 66 73 75 81 84 87 96 105 111 111 107 103 102 102 101 96 94 95 97 99 97 91 83 78 77 78 75 69 67 65 61 58 60 67 72 73 79 81 77 75 61 47 30 26 28 260 243 216 194 191 198 209 210 182 170 183
244 232 201 187 174 152 87 31 5 354 354 344 330 345 73 35 18 23 38 55 70 98 133 146 146 125 103 97 93 69 59 64 65 61 62 65 69 80 98 107 107 106 104 102 103 102 99 97 98 97 96 92 86 81 80 82 79 72 70 73 72 68 65 62 61 64 67 71 73 72 73 65 53 44 51 67 83 78 99 138 147 157 170 165 133 123 133
239 233 202 170 118 94 69 24 352 351 356 336 296 213 72 19 1 4 25 45 50 64 107 111 97 105 122 131 128 106 89 86 87 89 94 100 98 90 88 99 109 112 112 110 107 102 98 96 94 91 92 91 89 88 86 82 78 70 66 72 75 73 70 65 65 68 70 70 70 70 73 71 62 56 62 76 84 80 82 103 114 122 131 133 125 119 121
239 237 188 94 87 82 50 14 353 352 338 301 268 155 40 3 352 356 8 39 55 48 74 96 102 141 148 149 148 138 121 107 101 102 106 108 105 98 98 114 121 115 112 111 107 104 101 96 88 84 88 88 88 93 93 84 81 78 72 76 80 74 66 62 63 67 68 64 61 61 65 70 69 63 63 72 76 75 79 89 96 106 116 118 120 128 126
223 219 149 111 119 57 1 341 16 348 308 235 91 64 32 360 5 11 6 29 61 62 63 81 111 135 138 143 149 146 138 131 127 125 120 111 109 112 122 129 117 103 101 104 105 106 106 101 94 89 88 88 87 89 89 87 91 94 84 82 82 73 67 68 67 66 66 63 56 50 55 66 71 70 67 67 69 72 82 84 75 80 97 99 104 130 136
217 192 144 136 125 36 355 316 58 8 9 97 95 78 68 37 28 36 23 23 43 65 79 85 102 124 135 144 145 141 138 139 136 132 128 123 123 128 134 127 118 114 113 110 107 108 107 104 102 98 94 93 92 88 84 83 91 97 92 90 90 80 75 79 78 75 76 72 62 49 48 59 67 68 67 68 66 62 67 74 75 81 88 77 84 126 141
314 218 105 92 89 52 32 47 83 60 62 82 69 59 77 59 35 43 50 41 34 39 72 93 105 121 133 139 141 139 139 139 138 134 133 135 136 136 133 127 124 122 115 108 105 105 105 105 106 105 103 102 99 93 86 80 79 87 91 94 95 89 85 87 88 87 86 87 83 69 55 60 67 65 60 59 62 62 63 68 75 82 93 119 130 143 153
39 61 86 95 92 76 65 71 85 87 85 78 54 59 70 56 38 39 49 72 63 43 69 98 111 122 129 139 143 142 136 134 138 139 138 143 147 142 135 130 127 121 114 111 109 106 103 104 106 109 111 111 107 100 95 90 85 83 84 84 83 85 88 86 85 93 98 100 104 101 87 83 87 82 65 47 33 25 37 71 83 66 44 193 169 160 153
91 83 95 107 96 87 85 82 79 77 76 68 57 61 62 48 47 46 40 54 59 52 71 101 122 124 133 148 143 139 135 131 133 138 144 152 153 144 138 136 134 130 124 119 115 109 106 106 107 111 115 114 111 109 106 104 96 85 80 79 75 74 78 76 71 74 81 83 94 103 113 120 117 112 96 81 58 14 358 2 29 145 230 242 239 210 182
133 109 110 110 100 99 101 100 99 89 72 62 56 59 62 56 51 48 43 45 52 55 60 70 106 120 143 161 145 141 142 133 133 140 145 148 145 140 140 143 140 133 125 118 115 111 108 107 108 110 113 114 115 118 119 112 106 101 98 96 94 93 96 95 86 70 59 55 74 94 104 124 128 128 130 140 145 125 31 355 327 298 249 238 252 218 182
107 99 107 109 107 108 105 99 106 100 82 75 69 60 67 72 65 55 48 42 38 44 51 46 65 114 148 156 149 154 156 144 143 146 143 141 141 141 144 145 142 135 126 121 119 116 112 111 112 114 117 118 120 122 117 107 103 106 107 103 110 123 129 118 101 85 75 68 53 60 60 60 76 87 99 126 136 125 115 108 343 329 309 252 300 317 249
127 123 136 142 135 133 128 93 86 87 82 84 78 61 61 69 65 60 58 50 39 33 36 39 37 59 115 131 152 174 166 152 152 155 155 158 157 151 149 147 142 137 132 129 127 125 123 125 125 123 122 123 124 123 118 115 113 108 99 74 57 71 91 89 76 59 69 67 40 34 61 74 65 41 18 37 68 73 130 189 209 305 342 32 60 1 354
156 134 147 148 142 144 133 109 94 90 85 84 79 61 53 54 49 42 48 55 53 42 33 30 29 36 72 105 155 174 159 155 167 169 166 167 166 161 157 153 148 145 143 141 137 133 134 137 135 132 131 133 136 132 122 122 127 126 123 122 92 64 40 46 41 24 32 50 37 16 18 54 81 78 21 349 63 76 48 241 233 243 262 263 231 313 29
92 108 125 120 52 96 115 114 109 98 83 78 80 65 43 44 45 36 33 41 48 47 36 26 23 21 24 34 211 187 164 160 174 180 176 174 174 172 169 163 155 150 149 149 147 144 145 146 143 141 140 139 139 133 125 127 133 133 134 137 123 102 67 46 30 7 12 34 33 18 15 13 15 82 113 124 211 281 312 308 277 255 256 258 245 230 145
112 116 107 87 49 104 119 128 121 101 87 77 91 80 50 43 41 35 37 36 33 37 39 33 31 24 7 348 294 261 225 187 181 184 185 188 189 187 183 175 162 156 156 158 157 154 156 156 154 151 151 150 145 139 135 136 134 130 134 141 104 89 82 71 45 6 12 25 12 3 18 12 315 267 206 182 182 192 322 343 331 291 277 278 269 251 224
102 100 96 96 95 108 123 137 128 111 101 66 89 88 67 52 34 23 39 40 27 31 37 35 40 35 17 358 322 294 273 249 230 196 196 206 207 200 193 182 172 167 166 164 163 164 164 163 163 161 157 155 152 146 142 140 137 132 129 110 86 71 66 70 52 15 12 12 1 352 346 339 324 289 269 237 190 168 156 113 356 332 307 304 306 298 285
90 98 110 128 129 127 139 162 157 145 144 127 120 119 101 84 53 16 36 36 18 29 37 35 42 42 28 16 359 322 288 267 267 228 209 216 215 208 201 192 186 182 176 169 167 169 168 166 166 167 165 161 157 152 147 144 138 132 123 110 95 78 62 52 26 359 1 355 349 359 357 339 325 302 297 310 310 232 190 184 190 200 211 245 299 324 329
128 132 150 162 163 167 178 195 136 131 133 135 141 135 125 126 156 225 186 125 55 22 24 34 38 35 31 33 25 352 317 278 258 240 227 226 226 222 214 203 194 189 186 185 177 169 168 171 171 173 173 166 160 158 154 147 142 136 132 128 117 108 102 91 45 323 351 3 348 348 353 343 327 319 315 313 304 288 269 234 221 213 198 196 213 330 346
154 167 183 197 201 164 153 139 119 123 134 148 153 155 171 177 195 229 219 157 113 34 27 35 20 356 350 7 351 308 279 259 254 253 248 242 238 232 226 229 223 208 201 205 194 175 174 178 178 180 181 171 165 166 159 151 150 146 144 147 148 144 142 135 119 4 355 9 352 340 338 324 314 314 315 311 301 296 294 285 283 287 222 190 200 294 327
168 177 189 177 55 84 117 128 140 158 166 168 169 198 233 227 211 223 220 173 141 257 115 51 8 348 339 331 319 303 292 280 273 271 266 259 254 241 225 228 233 223 212 212 203 187 185 187 186 186 184 176 172 171 164 160 162 157 153 159 156 140 136 126 105 61 341 332 320 324 318 303 296 294 295 299 301 302 302 293 287 304 310 264 229 254 258
170 173 180 161 143 145 149 155 175 185 177 175 185 202 225 244 253 255 234 67 338 318 17 40 3 343 336 333 334 328 314 301 288 277 268 261 261 255 239 230 230 225 218 215 209 200 196 196 196 193 186 178 175 173 169 168 168 163 160 162 150 144 150 152 157 273 272 240 252 290 282 264 264 275 284 292 293 290 293 298 298 296 295 287 279 267 247
170 173 181 174 172 187 187 176 183 190 185 187 202 206 204 220 250 264 247 98 287 297 17 17 338 336 350 349 344 334 321 309 295 283 276 266 255 250 243 235 231 230 228 221 215 210 206 203 202 199 190 181 177 176 176 176 174 173 175 176 182 199 210 209 209 235 256 245 242 260 264 255 259 271 275 283 291 288 287 290 289 287 284 279 281 286 279
175 180 188 188 193 202 198 185 189 201 201 205 220 227 220 224 241 247 233 242 267 289 330 314 308 320 336 328 317 308 303 297 289 281 276 270 261 250 242 236 235 238 240 235 226 221 217 212 208 203 194 185 181 180 181 182 181 184 188 186 187 196 203 193 184 201 226 241 238 244 248 250 259 267 266 272 284 288 291 292 290 289 291 289 292 312 9
186 190 195 198 205 212 210 200 201 211 214 218 229 237 233 234 247 248 247 252 260 266 277 283 289 299 300 295 292 291 289 287 283 276 269 266 263 256 247 241 237 238 241 242 238 232 225 219 213 206 196 188 186 186 186 185 187 192 196 196 191 186 184 186 190 198 214 228 228 230 241 253 261 267 270 273 276 278 283 289 290 293 294 291 290 317 45
199 198 196 200 208 217 220 213 210 217 224 226 231 236 238 242 249 255 259 262 263 269 278 284 287 290 288 284 284 284 281 278 275 272 270 269 267 264 259 253 246 241 241 241 239 235 230 224 217 209 199 192 190 190 189 189 193 199 201 200 199 193 189 191 192 194 206 219 217 214 229 246 253 258 263 267 268 269 274 280 286 293 294 292 293 288 282
199 192 183 196 206 215 225 230 229 232 237 240 242 242 242 247 255 261 266 270 275 280 284 285 286 286 284 284 284 282 280 278 275 273 273 272 269 267 266 263 256 252 248 242 235 233 233 230 222 214 206 198 195 196 195 193 196 200 201 201 202 203 201 199 201 206 212 215 216 219 228 236 240 243 253 263 266 266 269 273 279 284 286 288 289 280 266
186 176 164 173 187 194 201 224 241 246 252 260 262 257 252 254 262 268 270 274 279 281 282 284 285 282 280 280 280 277 276 277 277 275 274 272 270 268 266 264 262 260 257 251 242 236 234 232 226 219 211 205 204 206 205 200 198 199 197 193 190 197 208 212 214 217 216 214 221 232 238 241 245 248 251 256 261 263 267 270 274 276 279 284 288 284 273
165 154 142 139 145 146 136 119 96 78 273 278 279 276 273 272 275 279 281 281 283 284 284 285 284 282 281 281 280 279 278 277 276 276 275 273 272 270 267 265 265 263 259 256 251 243 237 235 229 219 210 209 212 212 207 202 199 196 190 183 185 200 215 216 214 214 214 215 220 229 236 241 244 239 234 238 248 256 261 268 274 278 280 283 289 292 290
131 127 124 122 121 117 108 97 85 66 30 321 303 302 298 294 294 294 292 290 290 290 289 287 283 281 282 280 277 276 274 272 271 272 271 270 269 268 265 264 264 262 261 263 259 249 241 235 226 214 205 206 212 211 203 196 195 198 198 193 195 206 213 211 208 209 209 209 211 218 227 239 245 241 232 229 238 251 258 265 275 283 287 288 290 293 294
121 121 121 119 115 109 104 101 83 45 12 340 321 314 310 307 305 299 293 292 291 288 286 285 282 279 279 278 275 274 273 272 271 270 269 268 267 265 264 264 263 262 265 269 267 259 248 234 217 204 200 206 212 211 199 187 184 198 214 216 212 213 211 205 202 206 208 209 213 217 227 238 249 257 259 254 251 257 263 267 270 277 283 287 287 286 287
129 129 128 125 121 113 99 78 45 20 5 348 331 322 316 313 306 299 295 294 293 292 290 288 285 282 281 280 279 277 276 276 274 272 271 270 270 268 266 266 263 262 264 265 262 261 256 239 216 202 201 207 207 197 187 181 181 197 220 223 218 213 206 195 191 200 205 205 204 207 230 258 260 257 258 258 260 261 262 262 265 269 272 276 276 276 278
146 144 136 122 111 97 74 53 40 28 15 2 346 331 326 321 313 308 305 301 299 298 295 291 286 285 286 285 282 279 277 276 275 273 271 269 267 266 265 263 262 263 264 260 255 255 249 235 219 209 209 207 195 180 177 181 186 200 215 216 208 200 190 180 184 198 207 216 220 224 241 260 264 260 253 252 255 259 263 268 270 268 267 270 272 273 275
150 143 129 116 105 92 81 67 49 32 13 2 352 337 328 322 315 309 305 302 301 301 298 293 291 291 292 290 286 280 276 274 274 273 271 267 263 262 262 265 269 273 269 258 247 237 225 216 211 208 202 192 181 177 178 181 185 197 207 203 191 180 175 174 182 193 203 226 244 247 247 253 258 261 259 255 253 254 261 266 267 264 263 266 268 268 270
142 133 124 118 109 101 98 91 61 25 355 350 348 336 324 319 317 313 310 310 309 306 301 299 297 295 292 288 284 279 276 273 270 268 267 266 263 261 262 267 274 271 249 229 223 216 204 198 196 189 175 164 164 169 170 171 179 193 199 188 172 166 168 169 175 187 196 200 206 213 225 239 252 264 269 266 261 257 256 257 259 260 260 262 263 265 268
136 130 125 120 116 113 116 108 49 355 334 332 335 331 325 325 327 326 321 319 317 313 310 309 306 303 300 295 288 283 280 276 270 266 265 263 261 257 251 251 253 237 204 196 208 209 193 174 169 168 164 163 168 167 163 168 183 190 182 170 165 164 165 168 174 184 191 191 196 210 226 240 250 257 260 260 258 256 254 253 253 256 258 259 261 264 266
134 128 123 118 115 105 75 48 25 349 332 323 324 354 2 354 342 331 327 326 325 323 321 319 315 311 309 302 294 291 290 284 279 280 282 279 274 262 237 215 206 198 186 178 172 167 158 154 158 163 164 165 166 162 157 168 182 178 165 163 166 163 164 171 176 182 193 204 218 231 238 242 243 245 248 250 251 253 254 253 253 254 256 256 258 260 261
138 137 136 126 111 95 68 48 39 16 202 185 162 84 46 20 357 348 352 350 344 339 335 331 326 322 319 312 306 308 309 299 285 288 302 314 326 320 214 187 181 180 176 164 144 133 133 138 147 156 159 158 156 151 147 158 167 162 157 163 166 167 174 180 183 195 212 222 229 235 237 238 239 241 243 246 249 251 252 252 251 252 251 251 253 256 258
153 154 145 125 110 116 129 138 152 168 174 171 135 91 71 44 23 25 27 15 5 3 0 352 344 339 335 327 321 324 328 325 320 339 13 40 60 74 95 128 148 152 149 135 123 127 136 137 135 137 141 142 142 143 145 150 151 151 155 163 167 174 185 191 198 211 220 222 224 228 230 234 239 241 242 244 246 247 247 247 247 248 247 246 249 252 255
166 157 134 122 130 168 169 161 165 175 167 131 109 107 106 86 60 49 41 28 22 24 20 12 6 3 359 353 351 357 0 1 19 52 66 73 79 85 88 91 100 112 118 114 112 122 134 135 131 127 125 122 125 134 137 137 141 147 156 166 175 185 193 199 207 213 214 215 217 221 225 231 236 237 238 241 243 244 245 245 245 246 245 243 245 248 250
161 153 146 152 167 175 175 177 181 177 156 138 132 135 139 128 100 72 49 32 26 28 29 27 26 25 20 17 23 35 42 49 65 81 87 88 91 95 98 98 94 93 95 98 104 113 122 127 131 133 131 127 129 140 143 145 154 160 162 170 185 195 198 200 201 202 206 211 216 220 226 231 232 233 236 241 241 241 242 243 242 242 242 241 243 247 250
169 173 181 184 175 175 188 192 179 166 162 156 151 158 169 168 145 103 75 49 32 28 32 34 37 39 41 42 48 58 66 76 86 93 95 95 95 98 101 104 102 98 99 105 110 116 120 125 128 130 130 130 143 165 173 170 171 175 180 183 188 192 197 200 201 203 209 214 218 222 228 231 231 231 234 238 240 240 240 240 240 241 244 245 245 247 250
178 182 185 182 175 186 200 192 166 166 172 166 161 173 189 185 159 134 113 64 38 37 41 41 43 48 53 60 68 77 85 92 98 101 101 100 100 100 100 103 106 110 116 120 122 127 134 139 138 137 139 146 164 193 203 192 183 185 193 196 196 197 201 205 208 211 214 219 225 230 231 231 232 233 233 236 240 240 238 236 237 240 243 244 243 243 245
182 175 171 172 177 184 188 177 169 178 187 183 180 191 203 195 175 168 161 106 34 42 60 60 59 63 69 77 86 93 97 100 103 105 106 107 109 108 106 109 114 120 128 133 136 140 146 151 155 163 169 171 170 174 188 195 194 195 200 204 204 205 208 210 210 213 217 224 231 236 237 236 237 237 236 235 237 236 234 235 237 238 238 240 240 240 242